Eveleth, MN

10:26 AM CDT on April 21, 2018 (GMT -0500)
Eveleth-Virginia Municipal

Weather History for KEVM - September, 2013

Change the Weather History Date:

Saturday, September 21, 2013

  Actual Average Record
Temperature  
Mean Temperature 45 °F -  
Max Temperature 57 °F 61 °F 77 °F (2005)
Min Temperature 33 °F 40 °F 24 °F (1999)
Degree Days  
Heating Degree Days 20    
Moisture  
Dew Point 37 °F    
Average Humidity 74    
Maximum Humidity 100    
Minimum Humidity 48    
Precipitation  
Precipitation 0.00 in - - ()
Sea Level Pressure  
Sea Level Pressure 29.94 in    
Wind  
Wind Speed 6 mph (NNW)    
Max Wind Speed 13 mph    
Max Gust Speed 20 mph    
Visibility 10 miles    
Events      
Averages and records for this station are not official NWS values.
T = Trace of Precipitation, MM = Missing Value Source: NWS Daily Summary

Daily Weather History Graph

Daily Weather History Graph

Search for Another Location

Airport or City:

Astronomy

Sep. 21, 2013 Rise Set
Actual Time 6:55 AM CDT 7:09 PM CDT
Civil Twilight 6:25 AM CDT 7:39 PM CDT
Nautical Twilight 5:48 AM CDT 8:15 PM CDT
Astronomical Twilight 5:11 AM CDT 8:53 PM CDT
Moon 8:06 PM CDT 9:27 AM CDT
Length of Visible Light 13h 14m
Length of Day
12h 13m
Waning Gibbous, 94% of the Moon is Illuminated
Sep 21
Waning Gibbous
Sep 26
Last Quarter
Oct 4
New
Oct 11
First Quarter
Oct 18
Full

Hourly Weather History & Observations

Time (CDT) Temp. Windchill Dew Point Humidity Pressure Visibility Wind Dir Wind Speed Gust Speed Precip Events Conditions
12:07 AM 44.6 °F 40.2 °F 41.0 °F 87% 29.88 in 10.0 mi WNW 8.1 mph - N/A   Overcast
12:27 AM 44.6 °F 40.7 °F 41.0 °F 87% 29.88 in 10.0 mi WNW 6.9 mph - N/A   Overcast
12:46 AM 44.6 °F 40.7 °F 41.0 °F 87% 29.88 in 10.0 mi WNW 6.9 mph - N/A   Overcast
1:07 AM 44.6 °F 39.2 °F 41.0 °F 87% 29.88 in 10.0 mi WNW 10.4 mph - N/A   Overcast
1:27 AM 44.6 °F 39.2 °F 41.0 °F 87% 29.88 in 10.0 mi NW 10.4 mph - N/A   Overcast
1:46 AM 44.6 °F 40.7 °F 41.0 °F 87% 29.89 in 10.0 mi WNW 6.9 mph - N/A   Overcast
2:07 AM 44.6 °F 40.2 °F 39.2 °F 81% 29.89 in 10.0 mi NW 8.1 mph - N/A   Mostly Cloudy
2:27 AM 44.6 °F 39.7 °F 41.0 °F 87% 29.90 in 10.0 mi NW 9.2 mph - N/A   Overcast
2:46 AM 44.6 °F 39.2 °F 39.2 °F 81% 29.90 in 10.0 mi North 10.4 mph - N/A   Overcast
3:07 AM 42.8 °F 38.6 °F 39.2 °F 87% 29.91 in 7.0 mi North 6.9 mph 16.1 mph N/A   Overcast
3:27 AM 42.8 °F 40.1 °F 39.2 °F 87% 29.91 in 10.0 mi NNW 4.6 mph - N/A   Overcast
3:46 AM 42.8 °F 39.3 °F 39.2 °F 87% 29.91 in 10.0 mi NNW 5.8 mph - N/A   Overcast
4:07 AM 42.8 °F 40.1 °F 37.4 °F 81% 29.92 in 10.0 mi NW 4.6 mph - N/A   Overcast
4:27 AM 42.8 °F 40.1 °F 37.4 °F 81% 29.92 in 10.0 mi NW 4.6 mph - N/A   Overcast
4:46 AM 42.8 °F 40.1 °F 37.4 °F 81% 29.92 in 10.0 mi NW 4.6 mph - N/A   Mostly Cloudy
5:07 AM 41.0 °F 38.0 °F 37.4 °F 87% 29.92 in 10.0 mi NW 4.6 mph - N/A   Scattered Clouds
5:27 AM 42.8 °F 40.1 °F 37.4 °F 81% 29.93 in 10.0 mi WNW 4.6 mph - N/A   Mostly Cloudy
5:46 AM 42.8 °F 41.1 °F 39.2 °F 87% 29.93 in 10.0 mi WNW 3.5 mph - N/A   Overcast
6:07 AM 42.8 °F 41.1 °F 37.4 °F 81% 29.93 in 10.0 mi West 3.5 mph - N/A   Overcast
6:27 AM 42.8 °F 40.1 °F 37.4 °F 81% 29.95 in 10.0 mi NW 4.6 mph - N/A   Overcast
6:47 AM 42.8 °F 40.1 °F 37.4 °F 81% 29.95 in 10.0 mi NW 4.6 mph - N/A   Overcast
7:07 AM 42.8 °F 40.1 °F 37.4 °F 81% 29.96 in 10.0 mi WNW 4.6 mph - N/A   Overcast
7:27 AM 42.8 °F 39.3 °F 37.4 °F 81% 29.96 in 10.0 mi NNW 5.8 mph - N/A   Overcast
7:47 AM 42.8 °F 36.6 °F 35.6 °F 76% 29.96 in 10.0 mi NW 11.5 mph 17.3 mph N/A   Overcast
8:07 AM 42.8 °F 37.5 °F 35.6 °F 76% 29.96 in 10.0 mi NNW 9.2 mph 17.3 mph N/A   Overcast
8:27 AM 42.8 °F 38.6 °F 35.6 °F 76% 29.97 in 10.0 mi NNW 6.9 mph - N/A   Mostly Cloudy
8:47 AM 42.8 °F 37.0 °F 35.6 °F 76% 29.97 in 10.0 mi NNW 10.4 mph 17.3 mph N/A   Scattered Clouds
9:07 AM 44.6 °F 39.7 °F 35.6 °F 71% 29.97 in 10.0 mi North 9.2 mph 19.6 mph N/A   Scattered Clouds
9:27 AM 44.6 °F 38.4 °F 33.8 °F 66% 29.97 in 10.0 mi NNW 12.7 mph 18.4 mph N/A   Clear
9:47 AM 44.6 °F 41.4 °F 33.8 °F 66% 29.97 in 10.0 mi NW 5.8 mph - N/A   Clear
10:07 AM 46.4 °F 41.9 °F 35.6 °F 66% 29.97 in 10.0 mi North 9.2 mph 17.3 mph N/A   Scattered Clouds
10:27 AM 46.4 °F 41.1 °F 35.6 °F 66% 29.97 in 10.0 mi NNW 11.5 mph 18.4 mph N/A   Scattered Clouds
10:47 AM 46.4 °F 42.4 °F 35.6 °F 66% 29.97 in 10.0 mi North 8.1 mph - N/A   Clear
11:07 AM 46.4 °F 41.5 °F 35.6 °F 66% 29.97 in 10.0 mi NW 10.4 mph - N/A   Scattered Clouds
11:27 AM 50.0 °F - 37.4 °F 62% 29.97 in 10.0 mi NW 8.1 mph 18.4 mph N/A   Scattered Clouds
11:47 AM 50.0 °F - 35.6 °F 58% 29.97 in 10.0 mi NNW 8.1 mph - N/A   Clear
12:07 PM 51.8 °F - 37.4 °F 58% 29.97 in 10.0 mi North 6.9 mph - N/A   Clear
12:27 PM 51.8 °F - 37.4 °F 58% 29.97 in 10.0 mi North 6.9 mph - N/A   Clear
12:47 PM 51.8 °F - 35.6 °F 54% 29.97 in 10.0 mi West 8.1 mph - N/A   Clear
1:07 PM 51.8 °F - 35.6 °F 54% 29.97 in 10.0 mi NNW 6.9 mph - N/A   Clear
1:27 PM 53.6 °F - 37.4 °F 54% 29.96 in 10.0 mi NNW 5.8 mph 17.3 mph N/A   Clear
1:47 PM 51.8 °F - 35.6 °F 54% 29.96 in 10.0 mi NNW 6.9 mph - N/A   Clear
2:07 PM 55.4 °F - 39.2 °F 54% 29.95 in 10.0 mi NW 6.9 mph - N/A   Clear
2:27 PM 57.2 °F - 39.2 °F 51% 29.95 in 10.0 mi North 10.4 mph 17.3 mph N/A   Clear
2:47 PM 55.4 °F - 37.4 °F 51% 29.95 in 10.0 mi NNW 6.9 mph - N/A   Clear
3:07 PM 55.4 °F - 37.4 °F 51% 29.95 in 10.0 mi NNW 4.6 mph - N/A   Clear
3:27 PM 57.2 °F - 37.4 °F 48% 29.95 in 10.0 mi WNW 5.8 mph - N/A   Clear
3:47 PM 57.2 °F - 37.4 °F 48% 29.95 in 10.0 mi North 3.5 mph - N/A   Clear
4:07 PM 57.2 °F - 37.4 °F 48% 29.94 in 10.0 mi North 8.1 mph - N/A   Clear
4:27 PM 57.2 °F - 37.4 °F 48% 29.94 in 10.0 mi North 5.8 mph - N/A   Clear
4:47 PM 57.2 °F - 37.4 °F 48% 29.94 in 10.0 mi North 5.8 mph - N/A   Clear
5:07 PM 57.2 °F - 37.4 °F 48% 29.94 in 10.0 mi WNW 3.5 mph - N/A   Clear
5:27 PM 57.2 °F - 37.4 °F 48% 29.94 in 10.0 mi NNE 5.8 mph - N/A   Clear
5:47 PM 53.6 °F - 35.6 °F 51% 29.94 in 10.0 mi NNE 5.8 mph - N/A   Clear
6:07 PM 53.6 °F - 37.4 °F 54% 29.94 in 10.0 mi North 3.5 mph - N/A   Clear
6:27 PM 51.8 °F - 35.6 °F 54% 29.93 in 10.0 mi North 4.6 mph - N/A   Clear
6:47 PM 51.8 °F - 37.4 °F 58% 29.93 in 10.0 mi North 3.5 mph - N/A   Clear
7:07 PM 46.4 °F 45.2 °F 37.4 °F 71% 29.93 in 10.0 mi North 3.5 mph - N/A   Clear
7:27 PM 44.6 °F 43.1 °F 37.4 °F 76% 29.94 in 10.0 mi NNE 3.5 mph - N/A   Clear
7:47 PM 42.8 °F - 37.4 °F 81% 29.95 in 10.0 mi Calm Calm - N/A   Clear
8:07 PM 42.8 °F - 39.2 °F 87% 29.95 in 10.0 mi Calm Calm - N/A   Clear
8:27 PM 41.0 °F - 37.4 °F 87% 29.95 in 10.0 mi Calm Calm - N/A   Clear
8:47 PM 39.2 °F - 37.4 °F 93% 29.96 in 10.0 mi Calm Calm - N/A   Clear
9:07 PM 37.4 °F - 35.6 °F 93% 29.96 in 10.0 mi Calm Calm - N/A   Clear
9:27 PM 35.6 °F - 35.6 °F 100% 29.97 in 10.0 mi Calm Calm - N/A   Clear
9:47 PM 37.4 °F - 35.6 °F 93% 29.97 in 10.0 mi Calm Calm - N/A   Clear
10:07 PM 35.6 °F - 35.6 °F 100% 29.97 in 10.0 mi Calm Calm - N/A   Clear
10:27 PM 35.6 °F - 35.6 °F 100% 29.98 in 10.0 mi Calm Calm - N/A   Clear
10:47 PM 35.6 °F - 35.6 °F 100% 29.98 in 10.0 mi Calm Calm - N/A   Clear
11:07 PM 35.6 °F - 35.6 °F 100% 29.98 in 10.0 mi Calm Calm - N/A   Clear
11:27 PM 33.8 °F - 32.0 °F 93% 29.98 in 10.0 mi Calm Calm - N/A   Clear
11:47 PM 33.8 °F - 33.8 °F 100% 29.99 in 10.0 mi Calm Calm - N/A   Clear